| time (UTC) | temp C | wind direction | speed KPH | gust KPH | rain 1hr cm | rain 24hr cm | rain mn cm | humidity % | barometer mb |
| 20260506194502 | 21 | 46 | 11.3 | 24.1 | 0.00 | 0.00 | 0.00 | 27 | 1019.5 |
| 20260506193058 | 21 | 315 | 6.4 | 17.7 | 0.00 | 0.00 | 0.00 | 25 | 1019.5 |
| 20260506191558 | 21 | 304 | 8.0 | 22.5 | 0.00 | 0.00 | 0.00 | 26 | 1019.6 |
| 20260506190052 | 21 | 332 | 6.4 | 14.5 | 0.00 | 0.00 | 0.00 | 31 | 1019.9 |
| 20260506184552 | 20 | 32 | 8.0 | 19.3 | 0.00 | 0.00 | 0.00 | 35 | 1019.7 |
| 20260506183042 | 19 | 276 | 1.6 | 12.9 | 0.00 | 0.00 | 0.00 | 46 | 1019.9 |
| 20260506181540 | 18 | 285 | 1.6 | 8.0 | 0.00 | 0.00 | 0.00 | 47 | 1019.9 |
| 20260506180034 | 18 | 279 | 1.6 | 8.0 | 0.00 | 0.00 | 0.00 | 52 | 1020.0 |
| 20260506174530 | 17 | 258 | 3.2 | 8.0 | 0.00 | 0.00 | 0.00 | 54 | 1020.0 |
| 20260506173026 | 16 | 244 | 1.6 | 8.0 | 0.00 | 0.00 | 0.00 | 57 | 1019.9 |
| 20260506171528 | 16 | 266 | 0.0 | 6.4 | 0.00 | 0.00 | 0.00 | 61 | 1019.9 |
| 20260506170017 | 15 | 250 | 1.6 | 8.0 | 0.00 | 0.00 | 0.00 | 61 | 1019.9 |
| 20260506164513 | 15 | 200 | 3.2 | 8.0 | 0.00 | 0.00 | 0.00 | 60 | 1019.7 |
| 20260506163017 | 14 | 256 | 1.6 | 6.4 | 0.00 | 0.00 | 0.00 | 64 | 1019.6 |
| 20260506161508 | 14 | 233 | 1.6 | 6.4 | 0.00 | 0.00 | 0.00 | 65 | 1019.7 |
| 20260506160011 | 14 | 233 | 1.6 | 4.8 | 0.00 | 0.00 | 0.00 | 65 | 1019.7 |
| 20260506154607 | 13 | 246 | 1.6 | 4.8 | 0.00 | 0.00 | 0.00 | 65 | 1019.7 |
| 20260506153056 | 12 | 153 | 0.0 | 4.8 | 0.00 | 0.00 | 0.00 | 68 | 1019.6 |
| 20260506151552 | 12 | 205 | 0.0 | 6.4 | 0.00 | 0.00 | 0.00 | 64 | 1019.6 |
| 20260506150047 | 12 | 207 | 0.0 | 3.2 | 0.00 | 0.00 | 0.00 | 67 | 1019.5 |
| 20260506144544 | 11 | 262 | 0.0 | 1.6 | 0.00 | 0.00 | 0.00 | 67 | 1019.5 |
| 20260506143038 | 11 | 139 | 0.0 | 1.6 | 0.00 | 0.00 | 0.00 | 71 | 1019.3 |
| 20260506141533 | 10 | 117 | 0.0 | 0.0 | 0.00 | 0.00 | 0.00 | 76 | 1019.1 |
| 20260506140037 | 8 | 115 | 0.0 | 1.6 | 0.00 | 0.00 | 0.00 | 82 | 1018.9 |
| 20260506134526 | 6 | 79 | 0.0 | 0.0 | 0.00 | 0.00 | 0.00 | 86 | 1018.7 |
| 20260506133023 | 6 | 79 | 0.0 | 1.6 | 0.00 | 0.00 | 0.00 | 86 | 1018.5 |
| 20260506131523 | 6 | 81 | 1.6 | 3.2 | 0.00 | 0.00 | 0.00 | 86 | 1018.4 |
| 20260506130018 | 6 | 84 | 0.0 | 1.6 | 0.00 | 0.00 | 0.00 | 86 | 1018.2 |
| 20260506124514 | 6 | 72 | 0.0 | 1.6 | 0.00 | 0.00 | 0.00 | 85 | 1017.8 |
| 20260506123010 | 6 | 74 | 0.0 | 3.2 | 0.00 | 0.00 | 0.00 | 85 | 1017.6 |
| 20260506121507 | 6 | 98 | 0.0 | 0.0 | 0.00 | 0.00 | 0.00 | 85 | 1017.4 |
| 20260506120005 | 7 | 137 | 0.0 | 1.6 | 0.00 | 0.03 | 0.00 | 84 | 1017.3 |
| 20260506114501 | 7 | 141 | 1.6 | 3.2 | 0.00 | 0.03 | 0.00 | 85 | 1017.1 |
| 20260506113059 | 6 | 78 | 0.0 | 0.0 | 0.00 | 0.03 | 0.00 | 86 | 1016.9 |
| 20260506111556 | 6 | 78 | 0.0 | 1.6 | 0.00 | 0.03 | 0.00 | 85 | 1016.7 |
| 20260506110052 | 7 | 35 | 0.0 | 0.0 | 0.00 | 0.03 | 0.00 | 84 | 1016.6 |
| 20260506104548 | 7 | 28 | 0.0 | 3.2 | 0.00 | 0.05 | 0.00 | 83 | 1016.5 |
| 20260506103045 | 7 | 79 | 0.0 | 3.2 | 0.00 | 0.05 | 0.00 | 84 | 1016.4 |
| 20260506101541 | 7 | 34 | 0.0 | 3.2 | 0.00 | 0.05 | 0.00 | 84 | 1016.2 |
| 20260506100041 | 7 | 39 | 0.0 | 3.2 | 0.00 | 0.05 | 0.00 | 85 | 1016.1 |
| 20260506094539 | 7 | 82 | 0.0 | 3.2 | 0.00 | 0.33 | 0.00 | 84 | 1015.9 |
| 20260506093052 | 7 | 115 | 0.0 | 3.2 | 0.00 | 0.33 | 0.00 | 83 | 1015.9 |
| 20260506091527 | 7 | 105 | 0.0 | 1.6 | 0.00 | 0.33 | 0.00 | 83 | 1015.8 |
| 20260506090024 | 8 | 355 | 0.0 | 0.0 | 0.00 | 0.33 | 0.00 | 81 | 1015.6 |
| 20260506084518 | 8 | 71 | 0.0 | 1.6 | 0.00 | 0.41 | 0.00 | 78 | 1015.6 |
| 20260506083015 | 9 | 75 | 0.0 | 3.2 | 0.00 | 0.41 | 0.00 | 75 | 1015.6 |
| 20260506081513 | 8 | 8 | 0.0 | 1.6 | 0.00 | 0.41 | 0.00 | 78 | 1015.6 |
| 20260506073007 | 9 | 95 | 0.0 | 3.2 | 0.00 | 0.48 | 0.00 | 78 | 1015.2 |
| 20260506071600 | 9 | 114 | 0.0 | 3.2 | 0.00 | 0.48 | 0.00 | 79 | 1015.1 |
| 20260506061559 | 11 | 146 | 1.6 | 8.0 | 0.00 | 0.64 | 0.48 | 68 | 1014.2 |
| 20260506044529 | 12 | 87 | 0.0 | 4.8 | 0.00 | 0.76 | 0.48 | 69 | 1013.1 |
| 20260506043028 | 12 | 149 | 0.0 | 3.2 | 0.00 | 0.76 | 0.48 | 70 | 1013.1 |
| 20260506041525 | 12 | 131 | 0.0 | 8.0 | 0.00 | 0.76 | 0.48 | 68 | 1012.9 |
| 20260506040024 | 12 | 134 | 0.0 | 11.3 | 0.00 | 0.76 | 0.48 | 68 | 1012.8 |
| 20260506034523 | 12 | 137 | 1.6 | 9.7 | 0.00 | 0.79 | 0.48 | 67 | 1012.7 |
| 20260506033119 | 13 | 129 | 0.0 | 4.8 | 0.00 | 0.79 | 0.48 | 65 | 1012.3 |
| 20260506031517 | 13 | 114 | 0.0 | 0.0 | 0.00 | 0.79 | 0.48 | 65 | 1011.9 |
| 20260506030015 | 13 | 115 | 0.0 | 0.0 | 0.00 | 0.79 | 0.48 | 62 | 1011.8 |
| 20260506024514 | 15 | 184 | 0.0 | 1.6 | 0.00 | 0.79 | 0.48 | 61 | 1011.6 |
| 20260506023012 | 16 | 190 | 0.0 | 1.6 | 0.00 | 0.79 | 0.48 | 57 | 1011.4 |
| 20260506021511 | 17 | 172 | 0.0 | 6.4 | 0.00 | 0.79 | 0.48 | 52 | 1011.2 |
| 20260506020013 | 18 | 270 | 1.6 | 6.4 | 0.00 | 0.86 | 0.48 | 46 | 1011.1 |
| 20260506014508 | 18 | 182 | 1.6 | 6.4 | 0.00 | 0.86 | 0.48 | 47 | 1011.0 |
| 20260506013006 | 18 | 183 | 1.6 | 8.0 | 0.00 | 0.86 | 0.48 | 46 | 1011.1 |
| 20260506011502 | 18 | 172 | 1.6 | 6.4 | 0.00 | 0.86 | 0.48 | 46 | 1011.1 |
| 20260506010104 | 18 | 235 | 3.2 | 11.3 | 0.00 | 0.86 | 0.48 | 47 | 1011.1 |
| 20260506004556 | 18 | 249 | 3.2 | 0.0 | 0.00 | 0.00 | 0.48 | 46 | 1011.1 |
| 20260506003054 | 18 | 149 | 1.6 | 8.0 | 0.00 | 0.94 | 0.48 | 47 | 1011.1 |
| 20260506001602 | 18 | 299 | 3.2 | 11.3 | 0.00 | 0.94 | 0.48 | 47 | 1011.2 |
| 20260506000109 | 18 | 169 | 3.2 | 8.0 | 0.00 | 0.94 | 0.48 | 49 | 1011.2 |
| 20260505234546 | 18 | 183 | 3.2 | 11.3 | 0.00 | 0.94 | 0.48 | 48 | 1011.2 |
| 20260505233048 | 18 | 263 | 1.6 | 9.7 | 0.00 | 0.94 | 0.48 | 50 | 1011.3 |
| 20260505231545 | 17 | 283 | 4.8 | 9.7 | 0.00 | 0.94 | 0.48 | 51 | 1011.6 |
| 20260505230043 | 16 | 205 | 1.6 | 8.0 | 0.00 | 0.94 | 0.48 | 57 | 1011.7 |
| 20260505224541 | 16 | 261 | 4.8 | 11.3 | 0.00 | 0.94 | 0.48 | 57 | 1011.9 |
| 20260505223036 | 16 | 326 | 1.6 | 12.9 | 0.00 | 0.94 | 0.48 | 59 | 1012.0 |
| 20260505221525 | 16 | 230 | 1.6 | 8.0 | 0.00 | 0.94 | 0.48 | 58 | 1011.9 |
| 20260505220021 | 15 | 126 | 1.6 | 8.0 | 0.00 | 0.94 | 0.48 | 59 | 1012.1 |
| 20260505214519 | 15 | 252 | 1.6 | 12.9 | 0.00 | 0.94 | 0.48 | 63 | 1012.2 |
| 20260505213016 | 15 | 121 | 1.6 | 9.7 | 0.00 | 0.94 | 0.48 | 66 | 1012.4 |
| 20260505211516 | 14 | 158 | 3.2 | 9.7 | 0.00 | 0.94 | 0.48 | 68 | 1012.6 |
| 20260505210008 | 13 | 262 | 1.6 | 12.9 | 0.00 | 0.94 | 0.48 | 68 | 1012.7 |
| 20260505204506 | 13 | 203 | 1.6 | 8.0 | 0.00 | 0.94 | 0.48 | 65 | 1012.8 |
| 20260505203059 | 12 | 132 | 0.0 | 6.4 | 0.00 | 0.94 | 0.48 | 72 | 1012.9 |
| 20260505201554 | 12 | 101 | 3.2 | 9.7 | 0.00 | 0.94 | 0.48 | 72 | 1012.9 |
| 20260505200052 | 12 | 271 | 3.2 | 9.7 | 0.00 | 0.94 | 0.48 | 72 | 1013.2 |